sat.trackr.live / text

‹ back to catalog

ONEWEB-0570

NORAD 55149 · 2023-004K

PAYLOAD ACTIVE UNKNOWN

§ Identity

Operator
Country
UK
Launch date
2023-01-10
Launch site
AFETR
Launch vehicle
Mass (kg)
RCS (m²)

Purposes: comms

External: N2YO · Heavens-Above · Gunter

§ Orbital elements

Epoch: 2026-09-19T10:37:52.290048Z

Period
109.20 min
Inclination
87.9161°
Eccentricity
0.0001942
Mean motion
13.18686214 rev/d
Perigee alt
1,188.3 km
Apogee alt
1,191.2 km
Semi-major
7,567.9 km
B*
-1.9847e-4
RAAN
316.7354°
Arg perigee
112.2970°
Mean anomaly
247.8369°
Rev number
18,211

§ Raw data

ONEWEB-05701 55149U 23004K   26262.44296632 -.00000065  00000+0 -19847-3 0  99912 55149  87.9161 316.7354 0001942 112.2970 247.8369 13.18686214182117

JSON: /api/v1/satellites/55149 · /tle

For live sub-satellite position, see the globe view (requires WebGL).

§ Visibility from observer

Set your observer location to see the next 7 days of passes ≥ 10°. The values pass through the URL so the page stays shareable.

No JS? Fill the form by hand. The geolocation button needs JavaScript.